{"data":{"norad_id":41890,"intl_designator":"2016-078G","name":"CYGFM07","alt_names":[],"object_type":"PAYLOAD","status":"INACTIVE","operator":null,"country":"US","launch_date":"2016-12-15","launch_site_code":"ERAS","launch_vehicle":null,"mission":null,"orbit_class":"UNKNOWN","rcs_meters":0.3239,"size_class":null,"mass_kg":null,"dimensions":null,"purposes":["earth_obs"],"wikipedia_slug":null,"has_3d_model":false,"image_url":null,"decayed_at":null,"tle_current":{"epoch":"2026-09-20T05:07:07.012704Z","epoch_age_seconds":39187,"freshness":"FRESH","line1":"1 41890U 16078G   26263.21327561  .00026080  00000+0  25362-3 0  9996","line2":"2 41890  34.9441 314.5767 0003720  35.6902 324.4073 15.65248830543871","mean_motion":15.6524883,"eccentricity":0.000372,"inclination_deg":34.9441,"raan_deg":314.5767,"arg_perigee_deg":35.6902,"mean_anomaly_deg":324.4073,"bstar":0.00025362,"rev_number":54387,"period_min":91.998152140449,"perigee_km":370.01197718387,"apogee_km":375.03446838962,"semimajor_km":6750.6602227867,"source":"CELESTRAK","updated_at":"2026-09-20T09:00:33.219085Z"}}}